Regional Weather Roundup
Issued by NWS

Home | Current Version | Previous Version | Graphics & Text | Print | Product List | Glossary On
Versions: 1 2 3 4 5 6 7 8 9 10 11 12 13 14 15 16 17 18 19 20 21 22 23 24 25 26 27 28 29 30 31 32 33 34 35 36 37 38 39 40 41 42 43 44 45 46 47 48 49 50
000
ASUS43 KDTX 220510
RWRMI
MICHIGAN HOURLY REGIONAL WEATHER ROUNDUP
NATIONAL WEATHER SERVICE DETROIT/PONTIAC MI
ISSUED BY NATIONAL WEATHER SERVICE GRAND RAPIDS MI
1200 AM EST SUN JAN 22 2017

NOTE: "FAIR" INDICATES FEW OR NO CLOUDS BELOW 12,000 FEET WITH NO
SIGNIFICANT WEATHER AND/OR OBSTRUCTION TO VISIBILITY.

MIZ047>049-052>055-059>063-066>070-074>076-081>083-220600-
SOUTHEAST LOWER MICHIGAN

CITY           SKY/WX    TMP DP  RH WIND       PRES   REMARKS
ADRIAN         FOG       41  41 100 W3        29.63S VSB 1/2
ALMA           FOG       43  43  98 SW5       29.60R VSB 1/4
ANN ARBOR      FOG       38  38 100 CALM      29.62S VSB 1/4
BAD AXE        FOG       43  43 100 S7        29.61S VSB 1/4
DETROIT CITY   CLEAR     46  45  96 CALM      29.63S
DETROIT        FOG       40  40 100 CALM      29.63S VSB 3/4
FLINT          CLEAR     48  47  96 S7        29.61S
GROSSE ILE     FOG       38  37  99 CALM      29.62S VSB 1/4
HILLSDALE      PTCLDY    46  46 100 S6        29.61F FOG
HOWELL         PTCLDY    48  46  93 SW5       29.61S FOG

CITY           SKY/WX    TMP DP  RH WIND       PRES   REMARKS
JACKSON        PTCLDY    50  48  93 SW9       29.62R FOG
LANSING        CLOUDY    48  46  93 S8        29.61R FOG
MASON          FOG       44  44 100 CALM      29.61R VSB 1/4
MONROE         FOG       41  41 100 CALM      29.62S VSB 1/4
MT. CLEMENS    FOG       37  37 100 CALM      29.62R VSB 1/2
PONTIAC        FOG       41  39  93 CALM      29.61S VSB<1/4
PORT HOPE        N/A     40  40 100 SE7       29.59F
PORT HURON     FOG       41  41 100 SE3       29.64S VSB<1/4
TRI CITIES     FOG       41  41 100 SW6       29.59R VSB 1/4
YPSILANTI      FOG       40  40 100 CALM      29.63S VSB 1/4
$$
MIZ043>046-050>051-056>058-064>065-071>073-077>080-220600-
SOUTHWEST LOWER MICHIGAN

CITY           SKY/WX    TMP DP  RH WIND       PRES   REMARKS
BATTLE CREEK   PTCLDY    46  46 100 S8        29.61R FOG
BENTON HARBOR  FOG       41  39  93 CALM      29.60R VSB 1/4
BIG RAPIDS     FOG       37  36  97 CALM      29.57S VSB<1/4
COLDWATER      MOCLDY    49  49 100 S5        29.61S FOG
HOLLAND        PTCLDY    40  38  93 S3        29.60R
GRAND RAPIDS   FOG       39  38  96 S5        29.60R VSB 1/4
KALAMAZOO      FOG       43  41  93 CALM      29.61R VSB 1/4
MARSHALL       PTCLDY    50  49  98 SW3       29.61R FOG
MOUNT PLEASANT FOG       37  37  99 CALM      29.58S VSB 1/4
MUSKEGON       CLEAR     38  37  97 CALM      29.59R FOG
STURGIS        FOG       47  47 100 CALM      29.60S VSB 1/2
$$
MIZ016>042-220600-
NORTHERN LOWER MICHIGAN

CITY           SKY/WX    TMP DP  RH WIND       PRES   REMARKS
ALPENA         FOG       37  36  96 CALM      29.62R VSB 1/4
BEAVER ISLAND  CLOUDY    37  37 100 E7        29.57R FOG     WCI  31
BELLAIRE       CLOUDY    36  36  99 CALM      29.58R FOG
CADILLAC       FOG       41  40  97 S7        29.56R VSB 1/4
CHARLEVOIX     CLOUDY    40  40 100 SE3       29.59R FOG
GAYLORD        FOG       39  36  89 S3        29.57S VSB 1/4
HOUGHTON LAKE  FOG       41  41 100 S6        29.57S VSB 1/4
MANISTEE       FOG       39  39 100 CALM      29.57R VSB 1/4
OSCODA         FOG       39  38  97 CALM      29.59S VSB 1/4
PELLSTON       CLOUDY    37  36  96 SE5       29.59S FOG     WCI  33
TRAVERSE CITY  CLOUDY    44  42  93 SE3       29.55S FOG
LUDINGTON      FOG       40  40 100 CALM      29.57S VSB 1/2
$$
MIZ007>008-015-220600-
EASTERN UPPER MICHIGAN

CITY           SKY/WX    TMP DP  RH WIND       PRES   REMARKS
KINROSS        FOG       34  34 100 E12       29.60F VSB 1   WCI  25
MACKINAC ISLAN FOG       35  35 100 E10G17    29.59S VSB 1/2 WCI  28
NEWBERRY       CLOUDY    35  35  96 SE9       29.55F FOG     WCI  28
S. S. MARIE    RAIN      36  35  96 E8        29.60F VSB 3/4 WCI  30
$$
MIZ004>006-011>014-085-220600-
CENTRAL UPPER MICHIGAN

CITY           SKY/WX    TMP DP  RH WIND       PRES   REMARKS
MANISTIQUE     FOG       36  35  97 E9        29.54S VSB 3/4 WCI  29
ESCANABA       FOG       35  35 100 CALM      29.53S VSB 1/4
SAWYER-GWINN   SNOW      34  34  99 SW3       29.51S VSB 1/4
$$
MIZ001>003-009>011-084-220600-
WESTERN UPPER MICHIGAN

CITY           SKY/WX    TMP DP  RH WIND       PRES   REMARKS
IRON MOUNTAIN  FOG       34  32  92 CALM      29.50S VSB 1/4
HOUGHTON       LGT RAIN  35  33  92 E8        29.51F VSB 1/2 WCI  29
COPPER HARBOR    N/A     37  36  96 CALM      29.53S
IRONWOOD       FOG       35  34  96 CALM      29.51S VSB 1
$$

ABBREVIATIONS USED IN REMARKS
   TC - TEMPERATURE IN CELSIUS
  WCI - WIND CHILL INDEX
   HX - HEAT INDEX
  VSB - VISIBILITY




USA.gov is the U.S. government's official web portal to all federal, state and local government web resources and services.